Terminal Aerodrome Forecast
Issued by NWS Goodland, KS

Home | Current Version | Previous Version | Text Only | Print | Product List | Glossary On
Versions: 1 2 3 4 5 6 7 8 9 10 11 12 13 14 15 16
000
FTUS43 KGLD 281120
TAFGLD
TAF
KGLD 281120Z 2812/2912 23010KT P6SM SCT250
     FM281900 26010KT P6SM SCT300
     FM290600 30010KT P6SM SCT250=

USA.gov is the U.S. government's official web portal to all federal, state and local government web resources and services.